Dewpoint
58 58 58 58 59 59 59 59 59 60 60 60 61 61 60 61 61 61 62 61 61 61 61 61 61 63 62 63 63 63 60 48 42 41 41 44 50 64 65 66 65 64 64 54 46 39 31 30 28 29 37 43 46 43 50 46 48 45 38 31 28 26 23 28 26 23 24 23 19 21 21 21 18 24 25 25 24 24 24 28 28 27 27 29 35 36 33 32
57 57 57 58 59 59 59 59 60 60 60 60 60 60 61 61 61 61 61 61 61 61 61 61 61 62 63 62 63 61 56 56 44 40 36 63 65 64 66 63 65 65 64 51 42 31 31 27 27 28 32 37 53 42 40 45 46 40 35 32 27 28 25 21 20 18 17 20 20 21 21 21 19 22 24 22 21 22 22 22 25 25 26 30 31 33 31 31
57 57 57 57 58 59 59 59 59 59 60 60 60 60 60 60 61 61 61 61 61 61 61 61 61 62 62 62 62 61 59 55 45 39 38 61 64 65 66 66 65 66 59 46 43 31 28 28 28 27 32 28 40 37 43 43 36 33 34 30 28 31 23 22 21 21 21 20 19 19 20 20 20 21 23 23 20 21 21 20 22 23 24 29 30 30 30 30
57 57 57 57 58 58 59 59 59 59 59 60 60 60 60 60 60 60 61 61 61 61 61 61 61 62 62 63 62 60 59 56 41 37 47 62 63 64 64 63 65 65 56 47 41 32 30 28 27 27 36 26 34 37 37 40 35 33 29 27 26 25 24 20 20 20 20 22 21 18 19 21 21 20 22 22 20 20 19 20 20 21 23 26 29 31 30 30
57 57 57 57 57 58 58 59 59 59 59 59 59 60 60 60 60 60 61 60 60 61 61 60 61 62 62 62 61 58 58 37 35 46 57 62 62 63 61 64 62 57 54 47 33 28 28 27 26 29 33 25 28 34 30 34 30 39 26 25 23 20 23 21 20 22 22 23 23 20 18 19 22 20 21 21 19 18 19 20 20 21 22 24 29 31 29 29
56 57 57 57 57 58 58 58 59 59 59 59 59 59 59 60 60 60 60 60 60 61 60 61 61 61 62 62 58 59 50 13 49 53 58 61 61 61 63 59 62 57 47 36 29 30 29 27 27 36 29 25 26 28 27 26 29 24 23 23 23 20 17 21 21 27 22 21 20 19 20 20 20 20 20 20 20 20 22 24 24 22 22 22 28 31 30 29
57 57 57 57 57 57 57 58 58 58 58 59 59 59 59 59 60 60 60 60 60 60 60 61 61 62 61 61 56 52 46 30 52 58 56 60 60 62 59 61 56 54 42 33 25 28 29 27 26 25 26 24 22 21 23 30 31 23 19 18 18 18 18 20 21 24 21 22 19 21 21 21 20 19 21 20 20 21 21 21 24 24 24 27 28 30 29 29
57 57 57 57 57 57 57 58 58 58 58 58 59 59 59 59 59 60 60 60 60 60 60 60 61 61 59 60 60 44 42 36 46 51 54 59 60 56 59 53 48 50 34 27 25 24 27 26 25 28 24 23 25 21 27 29 24 22 20 20 19 22 21 23 20 21 21 20 20 23 21 19 19 19 20 18 19 20 21 21 22 23 23 27 27 29 31 30
58 58 57 57 57 57 57 57 58 58 58 58 58 58 59 59 59 60 60 60 60 60 60 60 61 61 59 54 47 38 25 54 41 41 50 51 46 49 54 43 39 39 31 27 26 30 36 30 26 28 23 25 26 24 25 21 19 22 20 20 19 20 21 19 19 21 21 21 21 21 19 20 20 22 19 19 19 20 21 21 21 23 23 25 26 28 31 31
57 57 57 57 57 57 57 57 57 58 58 58 58 58 59 59 59 59 60 60 60 60 60 61 61 60 57 54 48 30 50 40 41 41 41 45 41 42 42 48 33 32 29 25 25 25 28 33 45 41 42 23 26 23 27 25 21 23 22 20 19 19 20 21 18 19 21 21 21 20 19 19 20 21 18 19 20 20 20 21 21 22 22 22 24 29 30 31
57 57 56 57 57 56 56 56 56 57 57 57 58 58 58 59 59 58 59 60 60 60 60 61 61 56 55 45 36 25 54 52 42 37 40 46 41 35 45 48 45 40 28 33 27 28 34 34 46 38 43 22 24 23 23 23 23 21 21 20 19 19 19 19 19 20 19 19 21 20 19 20 21 25 18 19 20 21 20 20 20 22 22 22 23 25 31 30
57 57 56 56 56 56 56 56 56 56 57 57 57 57 58 58 58 59 59 59 59 59 61 60 60 56 48 42 35 38 41 42 44 40 38 42 48 52 52 43 39 50 42 29 36 50 51 49 45 30 20 33 23 22 23 22 22 21 20 18 19 19 18 18 18 18 20 19 21 21 20 18 19 19 20 20 20 20 19 19 20 20 21 25 24 23 26 28
58 57 57 56 56 56 56 56 56 56 57 57 57 57 57 58 58 58 58 59 58 60 61 59 54 55 54 38 39 46 43 38 44 44 48 47 45 44 48 50 49 45 44 38 44 50 50 47 46 31 34 28 25 20 28 29 22 22 20 19 19 19 18 19 19 18 19 19 21 19 16 13 16 19 19 19 20 20 18 19 18 22 21 22 25 23 25 26
58 58 57 57 56 56 57 56 56 56 56 57 57 57 57 57 58 58 58 58 59 61 62 61 61 54 44 31 49 46 39 43 42 45 45 45 41 51 50 50 50 42 48 42 49 45 47 35 45 33 41 28 23 35 23 24 23 20 20 20 20 21 19 20 19 18 18 21 20 19 17 12 12 18 19 19 20 19 19 18 19 21 22 22 24 24 24 25
58 58 57 57 56 57 57 56 56 56 56 57 57 57 57 57 57 58 58 58 61 61 61 60 55 55 40 30 39 44 56 42 34 43 47 36 41 49 48 41 46 45 37 39 46 44 41 46 45 31 23 29 33 24 22 21 21 19 22 20 24 20 20 20 21 18 17 21 19 18 20 15 14 14 15 18 20 20 19 19 19 20 20 21 22 23 23 25
58 58 58 57 57 57 56 57 56 57 57 57 57 56 57 57 57 57 57 58 60 60 60 57 55 49 36 26 46 53 51 35 34 48 41 51 50 46 44 45 44 43 34 32 40 33 34 44 31 28 27 27 23 23 22 23 22 20 19 24 23 24 22 20 20 19 19 19 19 17 16 15 14 18 21 22 20 20 19 19 19 19 19 20 21 22 23 25
58 58 58 57 57 56 57 57 57 57 56 56 56 56 57 57 57 58 58 59 59 59 60 51 41 38 24 43 36 34 36 47 48 48 44 40 47 47 40 45 38 35 43 34 39 45 32 31 38 31 34 24 21 29 24 24 23 24 24 20 25 23 22 20 20 20 24 19 17 18 15 14 14 15 20 22 22 19 18 18 18 19 19 19 21 23 23 24
58 58 58 58 57 57 57 57 56 56 56 55 56 56 56 58 59 58 58 58 60 56 53 55 50 45 29 35 26 24 46 41 51 49 49 38 42 38 39 30 39 36 38 31 41 29 32 28 28 26 30 25 21 21 25 20 21 24 22 21 16 18 21 22 21 19 19 19 17 17 17 16 16 16 16 17 22 20 19 18 17 17 18 19 20 21 23 24
58 58 58 58 57 57 57 57 56 56 56 56 56 57 58 59 57 56 50 50 44 47 39 36 37 26 24 34 34 37 49 50 47 45 36 38 48 40 40 34 41 28 32 27 26 25 34 34 37 31 26 23 20 19 21 22 18 15 14 14 16 18 18 17 18 20 19 19 18 17 17 16 17 17 17 18 18 18 19 18 18 18 19 19 20 21 22 25
58 58 58 58 58 57 57 57 57 56 56 55 52 52 54 52 49 42 41 43 31 27 26 34 31 28 34 29 37 45 48 49 35 40 42 46 40 38 31 27 41 38 25 29 35 26 37 28 27 27 23 22 20 21 20 20 19 17 20 22 17 19 19 18 16 19 20 19 18 17 17 17 17 17 18 18 19 20 20 19 19 20 20 20 21 22 22 22
58 58 58 58 57 57 57 58 57 57 57 54 52 49 28 36 28 20 28 32 39 38 31 26 31 28 24 43 46 38 38 38 39 40 41 40 36 26 24 24 31 32 29 27 35 33 39 29 26 26 22 21 20 19 20 20 20 19 21 23 19 25 18 18 16 20 19 20 20 19 19 19 18 19 19 19 19 19 19 19 19 19 19 20 21 23 23 23
58 58 58 57 57 57 58 58 57 57 56 54 52 48 37 45 48 49 38 21 34 37 37 32 26 25 27 26 43 39 36 24 36 41 46 38 32 23 24 23 27 26 29 30 27 33 29 27 26 25 24 22 20 19 20 20 22 25 24 23 23 19 21 20 20 21 21 23 19 20 20 20 20 21 21 20 20 20 19 20 19 19 19 20 20 20 22 27
58 58 58 58 57 58 58 57 57 56 54 50 45 43 48 48 48 50 45 37 29 31 32 36 30 27 23 22 41 35 24 21 16 39 39 40 31 25 24 21 23 23 27 24 24 27 28 29 27 26 25 21 19 21 22 23 25 23 22 22 19 22 23 19 29 22 20 20 25 22 22 22 22 22 22 22 22 21 23 22 23 24 22 22 21 20 25 28
57 57 57 57 57 57 57 57 56 55 51 48 47 46 47 47 48 48 48 34 23 24 29 29 26 25 24 20 33 25 20 18 18 23 40 33 28 31 31 22 20 21 20 19 22 23 23 24 30 27 27 23 21 24 25 22 20 26 26 23 20 22 22 23 21 23 22 21 25 22 23 23 24 23 23 23 24 23 23 23 23 24 28 27 30 32 34 29
57 57 57 57 57 57 56 57 53 49 48 48 48 45 48 48 48 48 44 29 26 28 47 45 44 41 26 42 37 24 23 21 21 36 38 31 28 26 23 23 21 19 20 18 19 24 25 23 36 28 30 32 31 25 28 29 22 21 29 26 23 22 20 23 26 29 29 27 26 29 19 13 19 23 22 23 24 22 22 22 21 21 22 24 26 28 31 37
57 57 57 57 57 57 56 53 49 48 46 48 45 47 47 49 48 48 42 28 24 32 38 29 40 32 41 30 40 35 20 20 35 39 37 37 35 27 24 21 20 20 19 21 17 22 21 31 32 29 31 33 33 28 29 33 23 23 22 31 27 27 28 30 31 30 27 24 27 29 16 15 17 15 19 23 22 21 21 24 23 23 23 24 25 29 32 34
57 57 57 57 57 56 50 47 50 48 46 48 48 49 48 49 49 45 37 27 19 32 28 45 36 35 44 38 31 28 18 20 38 40 36 44 30 38 22 19 21 20 24 30 27 22 21 27 29 34 32 31 31 28 30 27 24 20 33 38 32 30 32 33 33 31 28 29 31 29 27 20 18 17 19 20 18 19 20 21 23 23 22 20 17 18 34 35
57 57 57 57 57 56 51 51 49 46 46 50 51 48 49 48 51 47 31 18 19 36 35 30 40 46 40 33 43 14 22 28 28 30 30 38 32 31 25 19 18 21 22 26 19 36 24 34 30 31 31 29 27 27 32 32 27 29 33 35 34 33 32 32 29 27 27 24 22 26 28 21 20 18 16 19 17 16 16 16 17 17 17 18 19 18 33 34
57 57 57 57 57 56 55 51 49 46 50 52 50 50 49 50 43 38 27 18 35 33 40 28 44 40 34 36 30 28 24 29 21 28 40 34 38 30 25 23 21 18 20 22 17 31 31 35 35 32 30 25 30 30 35 38 28 36 35 35 34 33 31 30 25 24 24 21 20 25 25 19 16 16 16 18 16 15 15 13 11 12 14 18 22 21 32 34
58 57 57 57 56 54 53 51 49 51 52 52 52 50 50 45 41 28 22 16 35 25 31 38 34 31 31 27 27 27 24 26 26 29 31 27 33 37 27 30 27 23 26 23 27 29 31 29 35 33 31 31 28 30 34 34 34 36 33 32 31 29 27 25 25 23 21 19 19 26 26 19 15 17 15 19 19 15 14 12 12 13 17 18 22 21 35 34
57 58 57 56 54 54 52 48 51 52 54 53 52 49 48 43 31 22 17 26 32 36 36 33 27 33 26 25 23 25 28 24 26 27 26 29 28 28 25 26 32 28 26 27 28 30 30 33 30 33 35 30 32 33 33 34 34 35 28 25 27 26 23 23 21 21 17 15 16 23 25 22 16 17 22 16 17 15 14 13 11 14 15 20 23 25 34 33
57 57 58 56 56 56 49 47 50 55 54 53 50 47 39 27 29 18 17 22 27 31 27 29 35 32 27 29 32 27 25 24 25 24 24 25 28 25 24 22 26 21 23 22 22 26 26 28 28 34 36 33 32 30 30 32 32 34 26 25 19 20 21 20 20 17 19 14 19 24 25 23 17 13 19 17 14 16 15 13 12 14 15 20 25 27 34 34
57 56 57 57 55 54 54 53 53 54 53 50 47 43 39 27 20 21 20 26 21 32 31 38 31 31 34 32 29 35 34 29 25 23 31 32 27 28 30 26 30 23 16 27 23 27 29 31 31 33 32 33 31 22 27 23 25 29 25 24 22 17 16 14 18 20 20 21 21 24 26 19 17 19 20 14 11 13 16 16 15 15 15 21 27 32 34 34
57 57 56 56 56 55 54 54 54 52 51 49 48 35 32 23 20 35 25 22 30 33 38 40 34 34 35 29 32 35 31 36 26 25 27 30 27 25 28 28 29 30 31 25 19 26 23 20 29 31 26 33 29 24 23 25 25 25 26 24 23 22 13 11 14 13 15 18 17 22 15 21 12 14 22 19 17 12 14 15 16 20 18 18 22 36 35 34
57 57 57 56 56 56 55 54 53 52 50 44 41 34 24 21 24 23 26 27 29 28 33 36 37 32 33 34 36 35 30 30 30 30 27 28 27 26 26 26 28 29 32 24 27 21 23 18 31 32 34 32 29 29 32 32 26 26 27 27 23 23 19 17 16 16 15 19 18 18 16 16 12 21 21 21 20 17 14 13 15 18 21 22 34 35 35 34
56 56 57 55 54 56 55 54 53 52 49 43 35 30 24 26 25 26 27 25 30 30 33 33 36 32 28 30 36 36 38 31 34 30 29 28 28 27 29 30 28 27 27 22 26 21 24 19 32 33 34 30 28 34 31 31 21 26 25 24 24 29 24 21 22 22 18 16 16 16 17 18 17 15 16 17 18 17 16 12 13 15 19 20 29 33 33 34
54 56 53 54 55 56 54 53 52 51 48 42 34 28 34 30 28 29 31 31 29 22 33 20 28 28 28 24 29 32 34 33 33 29 27 32 27 29 29 30 32 29 28 24 26 27 21 17 32 30 27 30 29 29 31 32 32 25 22 25 30 31 29 23 19 18 17 15 15 17 14 12 12 12 18 16 15 14 15 13 11 14 16 17 29 31 32 32
54 54 54 53 55 56 54 53 52 50 46 40 33 35 38 32 30 26 28 29 29 31 29 23 24 29 22 22 22 31 35 26 31 31 27 29 24 31 28 30 31 30 27 28 22 28 28 18 24 32 31 31 30 29 28 32 32 27 25 32 23 20 17 21 19 14 12 11 12 12 10 13 11 11 11 14 14 13 11 13 12 12 14 18 25 28 29 32
54 53 49 53 56 55 53 53 51 47 42 36 33 34 38 35 34 37 29 26 34 30 21 25 23 29 27 22 23 33 31 23 30 29 24 26 22 33 29 29 33 31 29 29 25 25 26 21 22 28 29 30 29 27 24 25 30 30 29 26 28 20 20 21 21 19 16 11 10 12 14 11 16 13 15 15 14 14 10 11 12 12 14 18 23 27 29 34
51 49 47 56 56 55 53 52 48 44 39 33 34 35 41 37 35 34 33 31 33 26 25 23 25 18 20 22 26 20 32 27 27 28 24 26 21 32 28 30 32 33 29 30 29 29 24 22 18 25 28 29 21 24 22 24 24 23 23 22 22 20 22 21 21 19 15 11 12 10 10 12 19 13 13 16 14 13 11 12 16 17 17 19 22 26 29 33
53 48 48 55 55 54 52 49 42 38 35 37 38 37 38 36 37 36 37 32 34 30 28 27 25 20 22 20 17 21 22 30 29 24 28 24 18 18 32 30 35 33 33 32 29 28 25 21 20 21 20 22 21 27 24 25 24 23 23 22 21 22 18 16 16 20 19 15 12 10 10 15 20 15 16 16 15 16 16 15 17 18 18 20 25 25 27 30
48 42 46 55 54 53 48 40 39 40 37 34 36 38 38 41 38 38 38 37 37 33 32 27 27 26 25 24 25 25 23 22 27 27 26 23 26 22 30 31 34 34 30 28 27 34 27 24 23 22 20 20 22 25 28 26 28 25 22 21 23 21 20 19 14 16 17 19 20 19 14 13 22 18 18 17 16 15 17 18 20 24 23 23 26 26 27 27
46 44 51 53 53 51 46 40 40 38 35 37 40 39 41 40 40 41 38 38 37 36 34 32 30 29 29 26 26 26 25 26 25 24 26 27 26 26 36 30 42 37 30 26 32 31 31 26 23 22 23 24 24 28 30 29 29 27 27 26 23 20 20 18 18 14 16 20 18 17 16 16 17 22 18 18 20 21 19 21 23 26 25 26 27 28 28 29
46 46 47 52 53 51 44 35 33 35 36 38 38 38 40 41 41 39 39 38 36 34 33 32 32 29 29 30 30 29 29 28 29 27 27 29 26 29 27 31 35 32 27 27 20 31 23 25 20 20 20 19 20 20 21 25 25 24 22 25 26 25 24 23 22 19 16 18 16 14 11 14 17 24 24 19 17 15 16 17 19 20 20 22 20 21 26 29
46 48 47 48 51 50 42 43 40 37 36 35 36 35 37 38 39 40 39 38 39 37 36 35 33 33 34 33 32 32 32 31 30 34 32 30 29 37 32 34 32 30 27 37 36 30 23 26 22 18 17 16 16 16 17 20 21 22 24 24 26 26 24 22 20 21 18 18 17 15 13 13 12 14 17 18 17 15 15 17 17 19 20 20 22 25 26 28
41 36 44 44 47 46 46 45 43 41 38 36 35 36 37 36 38 40 40 38 39 38 37 36 34 37 34 33 31 32 32 35 33 32 31 31 33 32 37 35 35 35 35 37 34 28 23 27 23 22 21 21 20 21 23 28 23 20 24 23 23 26 26 25 24 21 18 19 19 19 18 16 16 15 15 15 14 13 13 13 14 16 21 24 24 26 26 27
43 38 40 36 43 43 41 43 42 43 39 38 34 36 35 36 36 37 40 37 39 38 38 38 35 34 33 33 32 32 33 33 34 33 32 32 33 35 34 36 34 33 34 35 35 31 29 24 24 23 22 22 23 23 24 26 24 24 24 24 25 24 26 27 24 21 21 22 17 20 21 22 20 18 17 16 16 16 16 16 17 17 18 20 23 25 29 26
35 37 39 44 39 34 37 38 42 41 42 41 37 37 35 35 36 35 38 39 39 40 38 36 38 37 36 34 34 32 33 32 33 31 33 33 33 33 32 32 31 32 33 34 34 31 29 27 29 30 28 28 27 25 25 25 25 25 25 24 23 26 26 26 26 24 22 20 18 20 21 22 19 18 18 18 18 18 17 17 17 16 16 17 16 18 23 28
37 38 38 39 37 38 40 38 38 39 39 40 39 38 36 36 35 36 36 36 39 38 39 35 36 37 37 36 35 33 34 32 32 33 33 33 32 32 31 31 30 31 32 30 28 31 29 26 29 31 30 30 30 29 28 27 25 25 25 24 24 24 24 25 24 24 24 24 23 22 21 21 20 19 19 19 19 19 17 17 17 17 16 17 17 18 20 21
34 36 35 37 37 36 35 35 36 37 35 38 36 37 37 37 36 37 38 37 35 37 40 37 37 37 37 36 35 34 34 35 34 33 33 33 32 32 31 32 31 30 30 29 29 31 27 26 31 31 29 29 30 31 30 29 28 26 26 27 26 26 25 25 24 25 26 25 24 24 24 23 23 22 21 21 20 20 19 18 18 18 18 19 19 20 20 20
40 39 40 35 31 32 32 33 35 36 34 35 35 35 36 36 37 38 37 38 38 36 38 37 38 38 37 36 35 35 36 36 36 36 36 35 32 33 32 31 34 30 29 28 30 29 30 27 31 30 28 27 30 30 30 30 29 27 26 26 26 26 25 25 25 24 23 23 24 24 24 23 23 23 23 22 22 21 21 20 20 21 20 21 21 21 21 21
34 36 38 37 29 32 30 31 31 32 29 35 36 35 35 36 37 38 36 38 39 40 40 40 39 39 38 37 37 36 37 37 37 37 38 36 36 36 36 37 35 34 29 29 32 29 30 28 27 28 26 25 29 30 29 29 28 27 27 27 27 26 26 26 26 26 25 25 24 23 22 23 23 24 22 22 22 22 22 21 22 22 22 22 21 21 21 22